Torna al catalogo

STARLINK-32454

AttivoComunicazioniVLEO
NORAD 62142·PAYLOAD·🇺🇸 United States

Lanciato Nov 30, 2024 da Cape Canaveral Space Force Station

Loading…

Prossimi Passaggi (prossime 24 ore)

TLE

AggiornatoSource: CelesTrak SupGP

Epoca: Sep 14, 2026, 20:44 UTC

1 62142C 24224D   26257.86437500 -.00005153  00000+0 -18660-3 0  2570
2 62142  42.9999 177.2763 0001499 262.9389 136.8148 15.27586157    13

Traccia STARLINK-32454 in tempo reale con AllMySat

Download on the App Store